Location: Oulou
(10.7667°N, 12.5167°W)
Time: 13:31:29
(UTC+00:00)

NOAA 11 - Pass Details

Date: 20 September 2019
Orbit: 832 x 850 km, 98.4° (Epoch: 14 October)

Event Time Altitude Azimuth Distance (km) Brightness Sun altitude
Rises 19:44:47 0° 154° (SSE) 3,405 7.1 -14.9°
Reaches altitude 10° 19:47:14 10° 148° (SSE) 2,470 6.3 -15.5°
Maximum altitude 19:52:27 45° 76° (ENE) 1,136 4.4 -16.7°
Drops below altitude 10° 19:57:39 10° 5° (N) 2,467 6.6 -18.0°
Sets 20:00:06 0° 359° (N) 3,401 7.4 -18.6°
